Terug naar catalogus

COSMOS 1375 DEB

ActiefLEO
NORAD 16379·DEBRIS·🇷🇺 Russia

Gelanceerd Jun 6, 1982 vanaf Plesetsk Cosmodrome

Loading…

Volgende Passages (komende 24 uur)

TLE

VersSource: Space-Track

Epoch: Sep 14, 2026, 07:12 UTC

1 16379U 82055T   26257.30043498 -.00000072  00000-0  94977-5 0  9990
2 16379  65.8395   5.9046 0011671  18.8573  11.4955 13.78142192637386

Volg COSMOS 1375 DEB in realtime met AllMySat

Download on the App Store